SXM-7

Last updated on Wed Nov 20 2024 00:02:43 GMT+0000 (Coordinated Universal Time)

1 47240U 20096A 24323.84883837 -.00000202 00000+0 00000+0 0 9990 2 47240 0.0033 82.9690 0004562 53.2124 142.6029 1.00272788 1687
UTC large
Height (km)
Speed (km/s)
/
Latitude / Longitude
Inclination (degrees)
Orbital Period (minutes)
Azimuth
Elevation
Range (km)
Doppler Factor

Next 0 passes for location: London (51.5072 / 0.1276)

Sorry there are no passes over London.